IRIDIUM 176 (43923 NORAD) Tracking and Keplerian Element Data

This shows tracking and keplerian element data for the satellite.

Feedback or suggestion? Click here.




ElementValue
Catalog43923
NameIRIDIUM 176
Epoch Orbit32587
Epoch Day34.47993522
Epoch Year2025
RAAN201.9817
Inclination86.6114
Eccentricity0.0001252
Argument of Perigee104.1183
Mean Anonmoly256.0173
Mean Motion14.72276937
Decay Rate2.015E-05
L11 43923U 19002B 25034.47993522 .00002015 00000+0 31541-3 0 9992
L22 43923 86.6114 201.9817 0001252 104.1183 256.0173 14.72276937325872



Live tracking and technical data element details for IRIDIUM 176 (NORAD 43923). IRIDIUM 176 can be tracked NOW for your location showing map with azimuth and elevation plus other details from your city location.







IsCatalogInMostPopularTable: catalog: 43923, numindb: 559
Update: records affected: 1



GetName: 43923 IRIDIUM 176

Hit Count: updated at: Thu, 22 May 2025 03:43:23 GMT